Location: *
(32.3300°N, 34.8500°E)
Time: 05:12:54
(UTC+00:00)

Cosmos 1726 Rocket - Pass Details

Date: 22 October 2019
Orbit: 602 x 630 km, 82.5° (Epoch: 17 November)

Event Time Altitude Azimuth Distance (km) Brightness Sun altitude
Rises 02:19:09 0° 354° (N) 2,856 6.9 -19.7°
Reaches altitude 10° 02:21:22 10° 354° (N) 1,950 6.0 -19.2°
Maximum altitude 02:25:41 89° 81° (E) 608 3.4 -18.3°
Drops below altitude 10° 02:29:59 10° 174° (S) 1,944 6.2 -17.4°
Sets 02:32:11 0° 175° (S) 2,846 7.1 -16.9°
